Orbital Elements at Epoch 2459000.5 (2020-May-31.0) TDB
Reference: JPL 16 (heliocentric ecliptic J2000)
Element | Value | Uncertainty (1-sigma) | Units |
e | .02885051638613067 | 3.9213e-08 | |
a | 2.209050181565502 | 9.2491e-09 | au |
q | 2.145317943104462 | 8.9821e-08 | au |
i | 1.999409347138705 | 3.9953e-06 | deg |
node | 234.8840784822841 | 0.0001468 | deg |
peri | 13.74752077496461 | 0.00017419 | deg |
M | 135.8576225224322 | 9.4986e-05 | deg |
tp | 2458547.927346121741 (2019-Mar-05.42734612) | 0.00031592 | TDB |
period | 1199.241914963377 3.28 | 7.5317e-06 2.062e-08 | d yr |
n | .3001896410625324 | 1.8853e-09 | deg/d |
Q | 2.272782420026542 | 9.5159e-09 | au |
|
| | Orbit Determination Parameters
Additional Information
|